Вернуться в каталог

COSMOS 2499 DEB

АктивенPO
NORAD 59319·DEBRIS·🇷🇺 Russia

Запущен May 23, 2014 с Plesetsk Cosmodrome

Loading…

Ближайшие Пролёты (ближайшие 24 часа)

TLE

СвежийSource: Space-Track

Эпоха: Sep 11, 2026, 18:44 UTC

1 59319U 14028BS  26254.78123601  .00003002  00000-0  83569-2 0  9997
2 59319  82.5074 181.5811 0294648  49.0517 313.5697 12.98056815157876

Отслеживайте COSMOS 2499 DEB в реальном времени с AllMySat

Download on the App Store